Time,TemperatureF,DewpointF,PressureIn,WindDirection,WindDirectionDegrees,WindSpeedMPH,WindSpeedGustMPH,Humidity,HourlyPrecipIn,Conditions,Clouds,dailyrainin,SoftwareType,DateUTC
2013-07-08 00:01:00,76.5,69.5,30.06,NNE,31,1.0,2.0,79,0.00,,---,0.00,VWS V14.01,2013-07-08 04:01:00,
2013-07-08 00:02:00,76.4,69.4,30.06,West,267,0.0,2.0,79,0.00,,---,0.00,VWS V14.01,2013-07-08 04:02:00,
2013-07-08 00:07:00,76.2,69.6,30.05,NNE,29,0.0,3.0,80,0.00,,---,0.00,VWS V14.01,2013-07-08 04:07:00,
2013-07-08 00:12:00,76.0,69.4,30.05,ESE,103,0.0,3.0,80,0.00,,---,0.00,VWS V14.01,2013-07-08 04:12:00,
2013-07-08 00:17:00,75.7,69.5,30.06,NW,304,0.0,3.0,81,0.00,,---,0.00,VWS V14.01,2013-07-08 04:17:00,
2013-07-08 00:22:00,75.5,69.3,30.06,WNW,301,0.0,3.0,81,0.00,,---,0.00,VWS V14.01,2013-07-08 04:22:00,
2013-07-08 00:27:00,75.2,69.3,30.06,WNW,301,0.0,3.0,82,0.00,,---,0.00,VWS V14.01,2013-07-08 04:27:00,
2013-07-08 00:32:00,75.0,69.1,30.06,South,185,0.0,0.0,82,0.00,,---,0.00,VWS V14.01,2013-07-08 04:32:00,
2013-07-08 00:37:00,74.8,69.3,30.05,NW,320,0.0,2.0,83,0.00,,---,0.00,VWS V14.01,2013-07-08 04:37:00,
2013-07-08 00:42:00,74.6,69.1,30.05,NW,320,0.0,2.0,83,0.00,,---,0.00,VWS V14.01,2013-07-08 04:42:00,
2013-07-08 00:47:00,74.4,69.3,30.05,NW,320,0.0,2.0,84,0.00,,---,0.00,VWS V14.01,2013-07-08 04:47:00,
2013-07-08 00:52:00,74.1,69.3,30.06,NW,320,0.0,2.0,85,0.00,,---,0.00,VWS V14.01,2013-07-08 04:52:00,
2013-07-08 00:57:00,73.7,69.3,30.06,NW,320,0.0,2.0,86,0.00,,---,0.00,VWS V14.01,2013-07-08 04:57:00,
2013-07-08 01:02:00,73.4,69.0,30.06,NW,320,0.0,0.0,86,0.00,,---,0.00,VWS V14.01,2013-07-08 05:02:00,
2013-07-08 01:07:00,73.1,69.0,30.05,NW,320,0.0,0.0,87,0.00,,---,0.00,VWS V14.01,2013-07-08 05:07:00,
2013-07-08 01:12:00,72.9,68.8,30.05,NW,320,0.0,0.0,87,0.00,,---,0.00,VWS V14.01,2013-07-08 05:12:00,
2013-07-08 01:17:00,72.7,68.9,30.06,NW,321,0.0,0.0,88,0.00,,---,0.00,VWS V14.01,2013-07-08 05:17:00,
2013-07-08 01:22:00,72.5,69.1,30.06,NW,320,0.0,0.0,89,0.00,,---,0.00,VWS V14.01,2013-07-08 05:22:00,
2013-07-08 01:28:00,72.3,68.9,30.06,West,263,0.0,1.0,89,0.00,,---,0.00,VWS V14.01,2013-07-08 05:28:00,
2013-07-08 01:32:00,72.2,69.1,30.06,SSW,210,0.0,1.0,90,0.00,,---,0.00,VWS V14.01,2013-07-08 05:32:00,
2013-07-08 01:37:00,72.1,69.0,30.05,SSW,209,0.0,1.0,90,0.00,,---,0.00,VWS V14.01,2013-07-08 05:37:00,
2013-07-08 01:42:00,72.0,68.9,30.05,SSW,209,0.0,1.0,90,0.00,,---,0.00,VWS V14.01,2013-07-08 05:42:00,
2013-07-08 01:47:00,71.8,69.0,30.05,SSW,209,0.0,1.0,91,0.00,,---,0.00,VWS V14.01,2013-07-08 05:47:00,
2013-07-08 01:52:00,71.6,68.8,30.05,SSW,210,0.0,1.0,91,0.00,,---,0.00,VWS V14.01,2013-07-08 05:52:00,
2013-07-08 01:57:00,71.3,68.9,30.05,SSW,210,0.0,1.0,92,0.00,,---,0.00,VWS V14.01,2013-07-08 05:57:00,
2013-07-08 02:02:00,71.2,69.1,30.05,SSW,210,0.0,0.0,93,0.00,,---,0.00,VWS V14.01,2013-07-08 06:02:00,
2013-07-08 02:07:00,71.0,68.9,30.05,SSW,210,0.0,1.0,93,0.00,,---,0.00,VWS V14.01,2013-07-08 06:07:00,
2013-07-08 02:12:00,70.9,68.8,30.05,SSW,209,0.0,1.0,93,0.00,,---,0.00,VWS V14.01,2013-07-08 06:12:00,
2013-07-08 02:17:00,70.8,68.7,30.05,SSW,209,0.0,1.0,93,0.00,,---,0.00,VWS V14.01,2013-07-08 06:17:00,
2013-07-08 02:22:00,70.7,68.9,30.05,SSW,209,0.0,1.0,94,0.00,,---,0.00,VWS V14.01,2013-07-08 06:22:00,
2013-07-08 02:27:00,70.7,68.9,30.05,SSW,209,0.0,1.0,94,0.00,,---,0.00,VWS V14.01,2013-07-08 06:27:00,
2013-07-08 02:32:00,70.7,68.9,30.05,SSW,209,0.0,0.0,94,0.00,,---,0.00,VWS V14.01,2013-07-08 06:32:00,
2013-07-08 02:37:00,70.6,68.8,30.05,SSW,209,0.0,0.0,94,0.00,,---,0.00,VWS V14.01,2013-07-08 06:37:00,
2013-07-08 02:42:00,70.5,69.0,30.05,SSW,209,0.0,0.0,95,0.00,,---,0.00,VWS V14.01,2013-07-08 06:42:00,
2013-07-08 02:47:00,70.5,69.0,30.05,SSW,209,0.0,0.0,95,0.00,,---,0.00,VWS V14.01,2013-07-08 06:47:00,
2013-07-08 02:53:00,70.5,69.0,30.05,SSW,209,0.0,0.0,95,0.00,,---,0.00,VWS V14.01,2013-07-08 06:53:00,
2013-07-08 02:58:00,70.5,69.0,30.05,SSW,209,0.0,0.0,95,0.00,,---,0.00,VWS V14.01,2013-07-08 06:58:00,
2013-07-08 03:02:00,70.5,69.0,30.05,SSW,209,0.0,0.0,95,0.00,,---,0.00,VWS V14.01,2013-07-08 07:02:00,
2013-07-08 03:07:00,70.5,69.0,30.06,SSW,210,0.0,1.0,95,0.00,,---,0.00,VWS V14.01,2013-07-08 07:07:00,
2013-07-08 03:12:00,70.5,69.0,30.05,West,273,0.0,1.0,95,0.00,,---,0.00,VWS V14.01,2013-07-08 07:12:00,
2013-07-08 03:18:00,70.5,69.0,30.05,West,273,1.0,1.0,95,0.00,,---,0.00,VWS V14.01,2013-07-08 07:18:00,
2013-07-08 03:23:00,70.5,69.0,30.06,WSW,238,0.0,2.0,95,0.00,,---,0.00,VWS V14.01,2013-07-08 07:23:00,
2013-07-08 03:27:00,70.5,69.0,30.06,SE,139,0.0,2.0,95,0.00,,---,0.00,VWS V14.01,2013-07-08 07:27:00,
2013-07-08 03:32:00,70.5,69.3,30.06,SW,216,0.0,2.0,96,0.00,,---,0.00,VWS V14.01,2013-07-08 07:32:00,
2013-07-08 03:38:00,70.5,69.0,30.06,SW,215,0.0,2.0,95,0.00,,---,0.00,VWS V14.01,2013-07-08 07:38:00,
2013-07-08 03:43:00,70.5,69.3,30.06,SW,215,0.0,2.0,96,0.00,,---,0.00,VWS V14.01,2013-07-08 07:43:00,
2013-07-08 03:48:00,70.4,69.2,30.06,SW,215,0.0,2.0,96,0.00,,---,0.00,VWS V14.01,2013-07-08 07:48:00,
2013-07-08 03:53:00,70.3,69.1,30.06,SW,215,0.0,2.0,96,0.00,,---,0.00,VWS V14.01,2013-07-08 07:53:00,
2013-07-08 03:58:00,70.2,69.0,30.06,SW,215,0.0,2.0,96,0.00,,---,0.00,VWS V14.01,2013-07-08 07:58:00,
2013-07-08 04:03:00,70.1,68.9,30.06,SW,215,0.0,0.0,96,0.00,,---,0.00,VWS V14.01,2013-07-08 08:03:00,
2013-07-08 04:08:00,70.1,68.9,30.06,SW,215,0.0,1.0,96,0.00,,---,0.00,VWS V14.01,2013-07-08 08:08:00,
2013-07-08 04:13:00,70.0,68.8,30.05,SW,215,0.0,1.0,96,0.00,,---,0.00,VWS V14.01,2013-07-08 08:13:00,
2013-07-08 04:18:00,69.9,68.7,30.05,SW,215,0.0,1.0,96,0.00,,---,0.00,VWS V14.01,2013-07-08 08:18:00,
2013-07-08 04:23:00,69.9,69.0,30.06,SW,215,0.0,1.0,97,0.00,,---,0.00,VWS V14.01,2013-07-08 08:23:00,
2013-07-08 04:28:00,69.8,68.6,30.06,SW,215,0.0,1.0,96,0.00,,---,0.00,VWS V14.01,2013-07-08 08:28:00,
2013-07-08 04:33:00,69.7,68.5,30.06,SW,215,0.0,0.0,96,0.00,,---,0.00,VWS V14.01,2013-07-08 08:33:00,
2013-07-08 04:38:00,69.6,68.7,30.06,SW,215,0.0,0.0,97,0.00,,---,0.00,VWS V14.01,2013-07-08 08:38:00,
2013-07-08 04:43:00,69.6,68.7,30.06,SW,215,0.0,0.0,97,0.00,,---,0.00,VWS V14.01,2013-07-08 08:43:00,
2013-07-08 04:48:00,69.6,68.7,30.06,SW,215,0.0,0.0,97,0.00,,---,0.00,VWS V14.01,2013-07-08 08:48:00,
2013-07-08 04:53:00,69.5,68.6,30.06,SW,215,0.0,0.0,97,0.00,,---,0.00,VWS V14.01,2013-07-08 08:53:00,
2013-07-08 04:58:00,69.6,68.7,30.06,SW,215,0.0,1.0,97,0.00,,---,0.00,VWS V14.01,2013-07-08 08:58:00,
2013-07-08 05:03:00,69.6,68.7,30.06,SW,216,0.0,0.0,97,0.00,,---,0.00,VWS V14.01,2013-07-08 09:03:00,
2013-07-08 05:08:00,69.5,68.6,30.07,WSW,251,0.0,1.0,97,0.00,,---,0.00,VWS V14.01,2013-07-08 09:08:00,
2013-07-08 05:13:00,69.5,68.6,30.07,WSW,238,0.0,1.0,97,0.00,,---,0.00,VWS V14.01,2013-07-08 09:13:00,
2013-07-08 05:18:00,69.6,68.7,30.07,SW,234,0.0,1.0,97,0.00,,---,0.00,VWS V14.01,2013-07-08 09:18:00,
2013-07-08 05:23:00,69.6,68.7,30.07,WSW,243,0.0,2.0,97,0.00,,---,0.00,VWS V14.01,2013-07-08 09:23:00,
2013-07-08 05:28:00,69.6,69.0,30.07,WSW,243,0.0,2.0,98,0.00,,---,0.00,VWS V14.01,2013-07-08 09:28:00,
2013-07-08 05:33:00,69.7,69.1,30.07,WSW,249,0.0,1.0,98,0.00,,---,0.00,VWS V14.01,2013-07-08 09:33:00,
2013-07-08 05:38:00,69.7,69.1,30.08,West,265,0.0,1.0,98,0.00,,---,0.00,VWS V14.01,2013-07-08 09:38:00,
2013-07-08 05:43:00,69.6,68.7,30.07,SE,136,0.0,1.0,97,0.00,,---,0.00,VWS V14.01,2013-07-08 09:43:00,
2013-07-08 05:48:00,69.6,68.7,30.08,WSW,248,0.0,1.0,97,0.00,,---,0.00,VWS V14.01,2013-07-08 09:48:00,
2013-07-08 05:52:00,69.6,68.7,30.08,SSE,155,0.0,1.0,97,0.00,,---,0.00,VWS V14.01,2013-07-08 09:52:00,
2013-07-08 05:57:00,69.5,68.6,30.08,SSE,155,0.0,1.0,97,0.00,,---,0.00,VWS V14.01,2013-07-08 09:57:00,
2013-07-08 06:02:00,69.5,68.6,30.08,SW,230,0.0,1.0,97,0.00,,---,0.00,VWS V14.01,2013-07-08 10:02:00,
2013-07-08 06:07:00,69.4,68.5,30.08,SW,231,0.0,1.0,97,0.00,,---,0.00,VWS V14.01,2013-07-08 10:07:00,
2013-07-08 06:12:00,69.3,68.4,30.08,SW,231,0.0,1.0,97,0.00,,---,0.00,VWS V14.01,2013-07-08 10:12:00,
2013-07-08 06:17:00,69.3,68.7,30.08,SW,232,0.0,1.0,98,0.00,,---,0.00,VWS V14.01,2013-07-08 10:17:00,
2013-07-08 06:22:00,69.3,68.7,30.08,SW,231,0.0,1.0,98,0.00,,---,0.00,VWS V14.01,2013-07-08 10:22:00,
2013-07-08 06:27:00,69.4,68.8,30.08,SSW,200,0.0,1.0,98,0.00,,---,0.00,VWS V14.01,2013-07-08 10:27:00,
2013-07-08 06:32:00,69.5,68.9,30.08,SSW,201,0.0,0.0,98,0.00,,---,0.00,VWS V14.01,2013-07-08 10:32:00,
2013-07-08 06:37:00,69.7,69.1,30.08,SSW,201,0.0,0.0,98,0.00,,---,0.00,VWS V14.01,2013-07-08 10:37:00,
2013-07-08 06:42:00,70.0,69.4,30.08,SSW,200,0.0,0.0,98,0.00,,---,0.00,VWS V14.01,2013-07-08 10:42:00,
2013-07-08 06:47:00,70.2,69.6,30.08,SSW,201,0.0,0.0,98,0.00,,---,0.00,VWS V14.01,2013-07-08 10:47:00,
2013-07-08 06:52:00,70.6,70.0,30.08,SSW,201,0.0,0.0,98,0.00,,---,0.00,VWS V14.01,2013-07-08 10:52:00,
2013-07-08 06:57:00,71.0,70.1,30.08,SSE,167,0.0,2.0,97,0.00,,---,0.00,VWS V14.01,2013-07-08 10:57:00,
2013-07-08 07:02:00,71.3,70.1,30.08,SSE,167,0.0,0.0,96,0.00,,---,0.00,VWS V14.01,2013-07-08 11:02:00,
2013-07-08 07:07:00,71.6,70.4,30.08,SSE,167,0.0,0.0,96,0.00,,---,0.00,VWS V14.01,2013-07-08 11:07:00,
2013-07-08 07:12:00,71.8,70.3,30.08,SW,231,1.0,1.0,95,0.00,,---,0.00,VWS V14.01,2013-07-08 11:12:00,
2013-07-08 07:17:00,72.2,70.7,30.08,SSE,160,0.0,1.0,95,0.00,,---,0.00,VWS V14.01,2013-07-08 11:17:00,
2013-07-08 07:22:00,72.5,70.7,30.07,South,187,0.0,2.0,94,0.00,,---,0.00,VWS V14.01,2013-07-08 11:22:00,
2013-07-08 07:27:00,73.2,71.1,30.07,South,181,0.0,2.0,93,0.00,,---,0.00,VWS V14.01,2013-07-08 11:27:00,
2013-07-08 07:32:00,74.0,71.5,30.08,WSW,243,0.0,1.0,92,0.00,,---,0.00,VWS V14.01,2013-07-08 11:32:00,
2013-07-08 07:37:00,74.9,71.8,30.08,SW,226,0.0,1.0,90,0.00,,---,0.00,VWS V14.01,2013-07-08 11:37:00,
2013-07-08 07:42:00,74.9,71.4,30.09,SW,220,2.0,3.0,89,0.00,,---,0.00,VWS V14.01,2013-07-08 11:42:00,
2013-07-08 07:47:00,74.6,71.2,30.09,West,269,3.0,4.0,89,0.00,,---,0.00,VWS V14.01,2013-07-08 11:47:00,
2013-07-08 07:53:00,74.5,71.4,30.08,ENE,59,1.0,4.0,90,0.00,,---,0.00,VWS V14.01,2013-07-08 11:53:00,
2013-07-08 07:58:00,74.6,71.5,30.09,SSW,213,0.0,4.0,90,0.00,,---,0.00,VWS V14.01,2013-07-08 11:58:00,
2013-07-08 08:03:00,74.8,71.3,30.09,ESE,122,1.0,2.0,89,0.00,,---,0.00,VWS V14.01,2013-07-08 12:03:00,
2013-07-08 08:07:00,75.0,71.5,30.09,NW,307,0.0,2.0,89,0.00,,---,0.00,VWS V14.01,2013-07-08 12:07:00,
2013-07-08 08:13:00,75.2,71.7,30.09,WSW,255,1.0,2.0,89,0.00,,---,0.00,VWS V14.01,2013-07-08 12:13:00,
2013-07-08 08:17:00,75.2,71.7,30.09,NE,42,0.0,3.0,89,0.00,,---,0.00,VWS V14.01,2013-07-08 12:17:00,
2013-07-08 08:23:00,75.4,71.9,30.08,West,268,0.0,4.0,89,0.00,,---,0.00,VWS V14.01,2013-07-08 12:23:00,
2013-07-08 08:28:00,76.1,72.3,30.09,East,100,0.0,4.0,88,0.00,,---,0.00,VWS V14.01,2013-07-08 12:28:00,
2013-07-08 08:33:00,77.0,72.5,30.09,ENE,68,1.0,2.0,86,0.00,,---,0.00,VWS V14.01,2013-07-08 12:33:00,
2013-07-08 08:38:00,77.0,71.8,30.10,SW,224,2.0,8.0,84,0.00,,---,0.00,VWS V14.01,2013-07-08 12:38:00,
2013-07-08 08:43:00,76.9,71.7,30.10,NW,304,2.0,8.0,84,0.00,,---,0.00,VWS V14.01,2013-07-08 12:43:00,
2013-07-08 08:48:00,76.9,72.1,30.10,NNE,28,1.0,8.0,85,0.00,,---,0.00,VWS V14.01,2013-07-08 12:48:00,
2013-07-08 08:53:00,77.5,71.9,30.09,SE,133,1.0,8.0,83,0.00,,---,0.00,VWS V14.01,2013-07-08 12:53:00,
2013-07-08 08:58:00,78.4,72.4,30.09,SSE,160,1.0,8.0,82,0.00,,---,0.00,VWS V14.01,2013-07-08 12:58:00,
2013-07-08 09:03:00,78.6,71.6,30.09,SSE,159,0.0,6.0,79,0.00,,---,0.00,VWS V14.01,2013-07-08 13:03:00,
2013-07-08 09:08:00,79.3,72.2,30.09,NW,304,1.0,7.0,79,0.00,,---,0.00,VWS V14.01,2013-07-08 13:08:00,
2013-07-08 09:13:00,79.7,72.2,30.09,ESE,120,1.0,7.0,78,0.00,,---,0.00,VWS V14.01,2013-07-08 13:13:00,
2013-07-08 09:18:00,79.9,72.1,30.09,NE,41,1.0,7.0,77,0.00,,---,0.00,VWS V14.01,2013-07-08 13:18:00,
2013-07-08 09:23:00,79.8,72.3,30.08,NE,53,0.0,7.0,78,0.00,,---,0.00,VWS V14.01,2013-07-08 13:23:00,
2013-07-08 09:28:00,80.1,71.9,30.08,SW,229,1.0,7.0,76,0.00,,---,0.00,VWS V14.01,2013-07-08 13:28:00,
2013-07-08 09:33:00,80.2,72.3,30.09,WSW,246,0.0,3.0,77,0.00,,---,0.00,VWS V14.01,2013-07-08 13:33:00,
2013-07-08 09:38:00,80.7,72.8,30.08,SSE,167,1.0,3.0,77,0.00,,---,0.00,VWS V14.01,2013-07-08 13:38:00,
2013-07-08 09:43:00,80.8,72.5,30.08,SW,220,0.0,6.0,76,0.00,,---,0.00,VWS V14.01,2013-07-08 13:43:00,
2013-07-08 09:48:00,81.4,72.7,30.08,WSW,247,0.0,6.0,75,0.00,,---,0.00,VWS V14.01,2013-07-08 13:48:00,
2013-07-08 09:53:00,81.0,71.9,30.09,SW,221,1.0,8.0,74,0.00,,---,0.00,VWS V14.01,2013-07-08 13:53:00,
2013-07-08 09:58:00,81.5,73.2,30.09,WSW,250,0.0,8.0,76,0.00,,---,0.00,VWS V14.01,2013-07-08 13:58:00,
2013-07-08 10:03:00,82.2,73.1,30.09,South,176,2.0,5.0,74,0.00,,---,0.00,VWS V14.01,2013-07-08 14:03:00,
2013-07-08 10:08:00,82.5,73.0,30.09,ENE,75,0.0,5.0,73,0.00,,---,0.00,VWS V14.01,2013-07-08 14:08:00,
2013-07-08 10:13:00,82.2,71.9,30.08,South,174,1.0,5.0,71,0.00,,---,0.00,VWS V14.01,2013-07-08 14:13:00,
2013-07-08 10:18:00,82.1,72.2,30.07,ENE,75,0.0,5.0,72,0.00,,---,0.00,VWS V14.01,2013-07-08 14:18:00,
2013-07-08 10:23:00,82.6,72.7,30.08,NNE,23,1.0,5.0,72,0.00,,---,0.00,VWS V14.01,2013-07-08 14:23:00,
2013-07-08 10:28:00,82.3,72.4,30.08,WSW,253,1.0,5.0,72,0.00,,---,0.00,VWS V14.01,2013-07-08 14:28:00,
2013-07-08 10:33:00,81.8,71.9,30.09,North,10,0.0,1.0,72,0.00,,---,0.00,VWS V14.01,2013-07-08 14:33:00,
2013-07-08 10:38:00,81.9,72.4,30.09,SW,232,0.0,1.0,73,0.00,,---,0.00,VWS V14.01,2013-07-08 14:38:00,
2013-07-08 10:43:00,82.1,72.6,30.09,NE,51,0.0,2.0,73,0.00,,---,0.00,VWS V14.01,2013-07-08 14:43:00,
2013-07-08 10:48:00,82.3,73.2,30.09,SSW,211,3.0,4.0,74,0.00,,---,0.00,VWS V14.01,2013-07-08 14:48:00,
2013-07-08 10:53:00,82.1,72.6,30.09,SSW,200,2.0,4.0,73,0.00,,---,0.00,VWS V14.01,2013-07-08 14:53:00,
2013-07-08 10:58:00,82.4,73.3,30.09,SSE,162,1.0,4.0,74,0.00,,---,0.00,VWS V14.01,2013-07-08 14:58:00,
2013-07-08 11:03:00,82.6,73.1,30.09,WSW,248,1.0,1.0,73,0.00,,---,0.00,VWS V14.01,2013-07-08 15:03:00,
2013-07-08 11:08:00,82.3,72.4,30.09,SW,220,0.0,9.0,72,0.00,,---,0.00,VWS V14.01,2013-07-08 15:08:00,
2013-07-08 11:13:00,82.8,72.0,30.09,SE,128,1.0,9.0,70,0.00,,---,0.00,VWS V14.01,2013-07-08 15:13:00,
2013-07-08 11:18:00,83.4,72.6,30.09,WSW,238,4.0,9.0,70,0.00,,---,0.00,VWS V14.01,2013-07-08 15:18:00,
2013-07-08 11:23:00,83.9,72.7,30.09,SE,139,4.0,9.0,69,0.00,,---,0.00,VWS V14.01,2013-07-08 15:23:00,
2013-07-08 11:28:00,84.2,72.5,30.09,West,271,2.0,9.0,68,0.00,,---,0.00,VWS V14.01,2013-07-08 15:28:00,
2013-07-08 11:33:00,84.9,73.6,30.09,ESE,108,0.0,3.0,69,0.00,,---,0.00,VWS V14.01,2013-07-08 15:33:00,
2013-07-08 11:38:00,84.8,72.6,30.09,SE,138,0.0,5.0,67,0.00,,---,0.00,VWS V14.01,2013-07-08 15:38:00,
2013-07-08 11:43:00,84.8,72.6,30.08,SSE,165,1.0,5.0,67,0.00,,---,0.00,VWS V14.01,2013-07-08 15:43:00,
2013-07-08 11:48:00,85.2,72.6,30.09,ESE,104,1.0,9.0,66,0.00,,---,0.00,VWS V14.01,2013-07-08 15:48:00,
2013-07-08 11:53:00,86.0,72.9,30.08,WNW,286,1.0,9.0,65,0.00,,---,0.00,VWS V14.01,2013-07-08 15:53:00,
2013-07-08 11:58:00,85.5,71.9,30.09,WSW,238,4.0,9.0,64,0.00,,---,0.00,VWS V14.01,2013-07-08 15:58:00,
2013-07-08 12:03:00,84.6,72.0,30.09,SW,231,0.0,4.0,66,0.00,,---,0.00,VWS V14.01,2013-07-08 16:03:00,
2013-07-08 12:08:00,84.5,72.3,30.08,SW,234,3.0,7.0,67,0.00,,---,0.00,VWS V14.01,2013-07-08 16:08:00,
2013-07-08 12:13:00,83.9,71.3,30.08,SSE,163,0.0,7.0,66,0.00,,---,0.00,VWS V14.01,2013-07-08 16:13:00,
2013-07-08 12:18:00,84.0,71.9,30.08,SW,219,1.0,7.0,67,0.00,,---,0.00,VWS V14.01,2013-07-08 16:18:00,
2013-07-08 12:23:00,83.9,72.2,30.08,East,85,1.0,7.0,68,0.00,,---,0.00,VWS V14.01,2013-07-08 16:23:00,
2013-07-08 12:28:00,83.7,72.9,30.09,SSW,213,2.0,7.0,70,0.00,,---,0.00,VWS V14.01,2013-07-08 16:28:00,
2013-07-08 12:33:00,84.1,73.7,30.08,East,86,1.0,1.0,71,0.00,,---,0.00,VWS V14.01,2013-07-08 16:33:00,
2013-07-08 12:38:00,84.6,72.4,30.08,WSW,255,2.0,6.0,67,0.00,,---,0.00,VWS V14.01,2013-07-08 16:38:00,
2013-07-08 12:43:00,84.2,72.1,30.09,WNW,302,0.0,7.0,67,0.00,,---,0.00,VWS V14.01,2013-07-08 16:43:00,
2013-07-08 12:48:00,83.8,71.7,30.09,East,94,0.0,7.0,67,0.00,,---,0.00,VWS V14.01,2013-07-08 16:48:00,
2013-07-08 12:53:00,83.5,71.8,30.08,NNE,15,0.0,7.0,68,0.00,,---,0.00,VWS V14.01,2013-07-08 16:53:00,
2013-07-08 12:59:00,84.1,72.4,30.08,West,262,2.0,7.0,68,0.00,,---,0.00,VWS V14.01,2013-07-08 16:59:00,
2013-07-08 13:04:00,85.0,73.3,30.08,WSW,243,0.0,4.0,68,0.00,,---,0.00,VWS V14.01,2013-07-08 17:04:00,
2013-07-08 13:09:00,85.3,72.2,30.08,SSW,192,4.0,9.0,65,0.00,,---,0.00,VWS V14.01,2013-07-08 17:09:00,
2013-07-08 13:14:00,86.0,73.8,30.08,ESE,116,3.0,9.0,67,0.00,,---,0.00,VWS V14.01,2013-07-08 17:14:00,
2013-07-08 13:19:00,86.0,72.9,30.07,SW,218,2.0,9.0,65,0.00,,---,0.00,VWS V14.01,2013-07-08 17:19:00,
2013-07-08 13:24:00,85.9,73.7,30.07,SE,126,0.0,9.0,67,0.00,,---,0.00,VWS V14.01,2013-07-08 17:24:00,
2013-07-08 13:29:00,87.1,73.0,30.07,South,169,5.0,9.0,63,0.00,,---,0.00,VWS V14.01,2013-07-08 17:29:00,
2013-07-08 13:34:00,87.0,72.9,30.07,West,264,6.0,10.0,63,0.00,,---,0.00,VWS V14.01,2013-07-08 17:34:00,
2013-07-08 13:39:00,87.3,72.7,30.07,WSW,245,4.0,10.0,62,0.00,,---,0.00,VWS V14.01,2013-07-08 17:39:00,
2013-07-08 13:44:00,86.6,73.0,30.07,SW,224,0.0,10.0,64,0.00,,---,0.00,VWS V14.01,2013-07-08 17:44:00,
2013-07-08 13:50:00,87.3,71.7,30.06,South,183,2.0,10.0,60,0.00,,---,0.00,VWS V14.01,2013-07-08 17:50:00,
2013-07-08 13:55:00,88.0,72.4,30.06,SSE,160,0.0,10.0,60,0.00,,---,0.00,VWS V14.01,2013-07-08 17:55:00,
2013-07-08 14:00:00,89.0,72.8,30.06,WSW,245,2.0,10.0,59,0.00,,---,0.00,VWS V14.01,2013-07-08 18:00:00,
2013-07-08 14:05:00,87.8,72.7,30.06,WNW,283,1.0,5.0,61,0.00,,---,0.00,VWS V14.01,2013-07-08 18:05:00,
2013-07-08 14:10:00,86.9,72.8,30.06,SSW,205,0.0,5.0,63,0.00,,---,0.00,VWS V14.01,2013-07-08 18:10:00,
2013-07-08 14:15:00,87.3,71.2,30.06,SSW,208,2.0,6.0,59,0.00,,---,0.00,VWS V14.01,2013-07-08 18:15:00,
2013-07-08 14:20:00,87.4,71.8,30.06,SSW,201,0.0,6.0,60,0.00,,---,0.00,VWS V14.01,2013-07-08 18:20:00,
2013-07-08 14:25:00,88.1,73.4,30.05,North,6,1.0,6.0,62,0.00,,---,0.00,VWS V14.01,2013-07-08 18:25:00,
2013-07-08 14:30:00,88.8,71.6,30.05,South,184,3.0,4.0,57,0.00,,---,0.00,VWS V14.01,2013-07-08 18:30:00,
2013-07-08 14:35:00,87.1,70.5,30.05,ESE,122,0.0,8.0,58,0.00,,---,0.00,VWS V14.01,2013-07-08 18:35:00,
2013-07-08 14:41:00,86.2,71.7,30.05,West,275,1.0,8.0,62,0.00,,---,0.00,VWS V14.01,2013-07-08 18:41:00,
2013-07-08 14:46:00,86.0,71.9,30.06,West,280,1.0,8.0,63,0.00,,---,0.00,VWS V14.01,2013-07-08 18:46:00,
2013-07-08 14:51:00,85.5,71.5,30.06,ENE,68,0.0,8.0,63,0.00,,---,0.00,VWS V14.01,2013-07-08 18:51:00,
2013-07-08 14:56:00,85.1,72.9,30.06,SW,232,0.0,8.0,67,0.00,,---,0.00,VWS V14.01,2013-07-08 18:56:00,
2013-07-08 15:01:00,84.6,73.3,30.06,WSW,256,0.0,1.0,69,0.00,,---,0.00,VWS V14.01,2013-07-08 19:01:00,
2013-07-08 15:06:00,84.5,73.2,30.06,SW,225,0.0,1.0,69,0.00,,---,0.00,VWS V14.01,2013-07-08 19:06:00,
2013-07-08 15:11:00,84.0,73.2,30.06,SW,235,0.0,1.0,70,0.00,,---,0.00,VWS V14.01,2013-07-08 19:11:00,
2013-07-08 15:16:00,83.7,73.7,30.06,SSW,212,0.0,1.0,72,0.00,,---,0.00,VWS V14.01,2013-07-08 19:16:00,
2013-07-08 15:22:00,83.4,73.0,30.06,SW,229,0.0,2.0,71,0.00,,---,0.00,VWS V14.01,2013-07-08 19:22:00,
2013-07-08 15:27:00,83.5,73.5,30.05,WSW,257,0.0,2.0,72,0.00,,---,0.00,VWS V14.01,2013-07-08 19:27:00,
2013-07-08 15:32:00,83.6,74.0,30.05,South,191,0.0,0.0,73,0.00,,---,0.00,VWS V14.01,2013-07-08 19:32:00,
2013-07-08 15:37:00,84.5,73.7,30.05,South,191,2.0,5.0,70,0.00,,---,0.00,VWS V14.01,2013-07-08 19:37:00,
2013-07-08 15:43:00,85.6,73.8,30.05,ESE,109,1.0,5.0,68,0.00,,---,0.00,VWS V14.01,2013-07-08 19:43:00,
2013-07-08 15:48:00,85.8,74.5,30.04,NW,313,0.0,5.0,69,0.00,,---,0.00,VWS V14.01,2013-07-08 19:48:00,
2013-07-08 15:54:00,85.9,73.2,30.04,WSW,238,2.0,5.0,66,0.00,,---,0.00,VWS V14.01,2013-07-08 19:54:00,
2013-07-08 15:59:00,85.9,72.8,30.04,West,280,2.0,6.0,65,0.00,,---,0.00,VWS V14.01,2013-07-08 19:59:00,
2013-07-08 16:04:00,85.9,71.4,30.04,WSW,255,1.0,5.0,62,0.00,,---,0.00,VWS V14.01,2013-07-08 20:04:00,
2013-07-08 16:09:00,86.3,72.2,30.04,SSW,205,0.0,5.0,63,0.00,,---,0.00,VWS V14.01,2013-07-08 20:09:00,
2013-07-08 16:14:00,86.7,72.1,30.04,WSW,252,0.0,6.0,62,0.00,,---,0.00,VWS V14.01,2013-07-08 20:14:00,
2013-07-08 16:19:00,86.6,72.0,30.04,WSW,243,1.0,6.0,62,0.00,,---,0.00,VWS V14.01,2013-07-08 20:19:00,
2013-07-08 16:24:00,86.8,72.2,30.04,SSE,162,2.0,9.0,62,0.00,,---,0.00,VWS V14.01,2013-07-08 20:24:00,
2013-07-08 16:29:00,86.8,72.2,30.04,South,184,1.0,9.0,62,0.00,,---,0.00,VWS V14.01,2013-07-08 20:29:00,
2013-07-08 16:34:00,87.2,71.6,30.04,SSW,210,3.0,6.0,60,0.00,,---,0.00,VWS V14.01,2013-07-08 20:34:00,
2013-07-08 16:39:00,87.2,72.1,30.04,West,268,2.0,6.0,61,0.00,,---,0.00,VWS V14.01,2013-07-08 20:39:00,
2013-07-08 16:44:00,87.9,70.8,30.04,North,359,1.0,6.0,57,0.00,,---,0.00,VWS V14.01,2013-07-08 20:44:00,
2013-07-08 16:49:00,87.9,72.8,30.04,West,268,0.0,6.0,61,0.00,,---,0.00,VWS V14.01,2013-07-08 20:49:00,
2013-07-08 16:55:00,86.6,71.6,30.04,WNW,297,0.0,6.0,61,0.00,,---,0.00,VWS V14.01,2013-07-08 20:55:00,
2013-07-08 17:00:00,85.2,71.7,30.04,SW,229,0.0,0.0,64,0.00,,---,0.00,VWS V14.01,2013-07-08 21:00:00,
2013-07-08 17:06:00,84.2,72.1,30.04,SE,126,0.0,1.0,67,0.00,,---,0.00,VWS V14.01,2013-07-08 21:06:00,
2013-07-08 17:11:00,82.9,72.1,30.05,WSW,243,2.0,4.0,70,0.00,,---,0.00,VWS V14.01,2013-07-08 21:11:00,
2013-07-08 17:16:00,80.8,69.7,30.07,NNW,338,4.0,15.0,69,0.00,,---,0.00,VWS V14.01,2013-07-08 21:16:00,
2013-07-08 17:22:00,74.9,68.7,30.07,SSE,157,2.0,15.0,81,0.17,,---,0.17,VWS V14.01,2013-07-08 21:22:00,
2013-07-08 17:27:00,71.6,66.9,30.07,SSE,167,1.0,15.0,85,0.33,,---,0.33,VWS V14.01,2013-07-08 21:27:00,
2013-07-08 17:32:00,70.1,66.7,30.06,West,262,0.0,1.0,89,0.38,,---,0.38,VWS V14.01,2013-07-08 21:32:00,
2013-07-08 17:38:00,69.3,66.6,30.07,NNW,335,0.0,1.0,91,0.42,,---,0.42,VWS V14.01,2013-07-08 21:38:00,
2013-07-08 17:43:00,68.8,66.7,30.07,SW,224,1.0,3.0,93,0.45,,---,0.45,VWS V14.01,2013-07-08 21:43:00,
2013-07-08 17:48:00,68.5,66.4,30.05,South,170,1.0,3.0,93,0.47,,---,0.47,VWS V14.01,2013-07-08 21:48:00,
2013-07-08 17:53:00,68.4,66.6,30.06,South,187,1.0,3.0,94,0.49,,---,0.49,VWS V14.01,2013-07-08 21:53:00,
2013-07-08 17:58:00,68.5,67.0,30.06,SW,214,1.0,3.0,95,0.50,,---,0.50,VWS V14.01,2013-07-08 21:58:00,
2013-07-08 18:04:00,68.7,67.2,30.06,SW,231,0.0,4.0,95,0.50,,---,0.50,VWS V14.01,2013-07-08 22:04:00,
2013-07-08 18:08:00,69.0,67.8,30.06,WSW,245,0.0,4.0,96,0.50,,---,0.50,VWS V14.01,2013-07-08 22:08:00,
2013-07-08 18:14:00,69.3,68.1,30.06,SW,220,0.0,4.0,96,0.50,,---,0.50,VWS V14.01,2013-07-08 22:14:00,
2013-07-08 18:19:00,69.7,68.5,30.06,NW,305,1.0,4.0,96,0.50,,---,0.50,VWS V14.01,2013-07-08 22:19:00,
2013-07-08 18:24:00,69.9,68.7,30.06,SSW,213,0.0,4.0,96,0.50,,---,0.50,VWS V14.01,2013-07-08 22:24:00,
2013-07-08 18:29:00,70.0,68.5,30.06,SW,230,1.0,4.0,95,0.50,,---,0.50,VWS V14.01,2013-07-08 22:29:00,
2013-07-08 18:35:00,70.2,69.0,30.06,WSW,252,0.0,2.0,96,0.14,,---,0.50,VWS V14.01,2013-07-08 22:35:00,
2013-07-08 18:40:00,70.3,68.8,30.05,West,275,0.0,2.0,95,0.14,,---,0.50,VWS V14.01,2013-07-08 22:40:00,
2013-07-08 18:45:00,70.3,69.1,30.06,SW,227,0.0,2.0,96,0.14,,---,0.50,VWS V14.01,2013-07-08 22:45:00,
2013-07-08 18:50:00,70.2,69.0,30.06,WSW,238,0.0,2.0,96,0.14,,---,0.50,VWS V14.01,2013-07-08 22:50:00,
2013-07-08 18:55:00,70.3,69.1,30.06,WSW,238,0.0,2.0,96,0.14,,---,0.50,VWS V14.01,2013-07-08 22:55:00,
2013-07-08 19:00:00,70.4,69.2,30.06,WSW,238,0.0,0.0,96,0.00,,---,0.50,VWS V14.01,2013-07-08 23:00:00,
2013-07-08 19:06:00,70.7,69.8,30.06,SW,221,0.0,1.0,97,0.00,,---,0.50,VWS V14.01,2013-07-08 23:06:00,
2013-07-08 19:11:00,71.1,70.2,30.06,SW,221,0.0,1.0,97,0.00,,---,0.50,VWS V14.01,2013-07-08 23:11:00,
2013-07-08 19:16:00,71.2,70.3,30.06,SW,214,0.0,1.0,97,0.00,,---,0.50,VWS V14.01,2013-07-08 23:16:00,
2013-07-08 19:22:00,71.5,70.6,30.06,SW,218,0.0,1.0,97,0.00,,---,0.50,VWS V14.01,2013-07-08 23:22:00,
2013-07-08 19:27:00,71.9,71.0,30.06,SW,218,0.0,1.0,97,0.00,,---,0.50,VWS V14.01,2013-07-08 23:27:00,
2013-07-08 19:33:00,72.1,71.2,30.06,WSW,258,1.0,2.0,97,0.00,,---,0.50,VWS V14.01,2013-07-08 23:33:00,
2013-07-08 19:38:00,72.0,71.1,30.06,West,269,0.0,2.0,97,0.00,,---,0.50,VWS V14.01,2013-07-08 23:38:00,
2013-07-08 19:44:00,72.0,70.8,30.06,West,269,0.0,2.0,96,0.00,,---,0.50,VWS V14.01,2013-07-08 23:44:00,
2013-07-08 19:49:00,72.0,70.8,30.06,West,269,0.0,2.0,96,0.00,,---,0.50,VWS V14.01,2013-07-08 23:49:00,
2013-07-08 19:54:00,72.0,70.8,30.06,WSW,243,0.0,2.0,96,0.00,,---,0.50,VWS V14.01,2013-07-08 23:54:00,
2013-07-08 19:59:00,71.9,70.7,30.06,SW,236,0.0,2.0,96,0.00,,---,0.50,VWS V14.01,2013-07-08 23:59:00,
2013-07-08 20:05:00,71.9,71.0,30.06,SW,235,0.0,1.0,97,0.00,,---,0.50,VWS V14.01,2013-07-09 00:05:00,
2013-07-08 20:10:00,71.8,70.9,30.06,SW,235,0.0,1.0,97,0.00,,---,0.50,VWS V14.01,2013-07-09 00:10:00,
2013-07-08 20:15:00,71.6,70.4,30.06,SW,235,0.0,1.0,96,0.00,,---,0.50,VWS V14.01,2013-07-09 00:15:00,
2013-07-08 20:20:00,71.6,70.7,30.06,SW,235,0.0,1.0,97,0.00,,---,0.50,VWS V14.01,2013-07-09 00:20:00,
2013-07-08 20:25:00,71.5,70.6,30.06,SW,235,0.0,1.0,97,0.00,,---,0.50,VWS V14.01,2013-07-09 00:25:00,
2013-07-08 20:30:00,71.3,70.4,30.07,SW,235,0.0,1.0,97,0.00,,---,0.50,VWS V14.01,2013-07-09 00:30:00,
2013-07-08 20:35:00,71.2,70.3,30.07,SW,235,0.0,0.0,97,0.00,,---,0.50,VWS V14.01,2013-07-09 00:35:00,
2013-07-08 20:40:00,71.2,70.3,30.07,SW,235,0.0,0.0,97,0.00,,---,0.50,VWS V14.01,2013-07-09 00:40:00,
2013-07-08 20:46:00,71.0,70.1,30.07,SW,235,0.0,0.0,97,0.00,,---,0.50,VWS V14.01,2013-07-09 00:46:00,
2013-07-08 20:51:00,71.0,70.1,30.07,SW,235,0.0,0.0,97,0.00,,---,0.50,VWS V14.01,2013-07-09 00:51:00,
2013-07-08 20:56:00,70.9,70.0,30.07,SW,235,0.0,0.0,97,0.00,,---,0.50,VWS V14.01,2013-07-09 00:56:00,
2013-07-08 21:02:00,70.9,70.3,30.08,SW,235,0.0,0.0,98,0.00,,---,0.50,VWS V14.01,2013-07-09 01:02:00,
2013-07-08 21:07:00,70.9,70.3,30.08,SW,235,0.0,0.0,98,0.00,,---,0.50,VWS V14.01,2013-07-09 01:07:00,
2013-07-08 21:12:00,70.9,70.3,30.08,SW,235,0.0,1.0,98,0.00,,---,0.50,VWS V14.01,2013-07-09 01:12:00,
2013-07-08 21:18:00,70.8,70.2,30.09,SW,235,0.0,1.0,98,0.00,,---,0.50,VWS V14.01,2013-07-09 01:18:00,
2013-07-08 21:23:00,70.8,70.2,30.09,SW,235,0.0,1.0,98,0.00,,---,0.50,VWS V14.01,2013-07-09 01:23:00,
2013-07-08 21:28:00,70.7,70.1,30.09,SW,235,0.0,1.0,98,0.00,,---,0.50,VWS V14.01,2013-07-09 01:28:00,
2013-07-08 21:33:00,70.7,70.1,30.09,SW,235,0.0,0.0,98,0.00,,---,0.50,VWS V14.01,2013-07-09 01:33:00,
2013-07-08 21:38:00,70.7,70.1,30.10,SW,235,0.0,0.0,98,0.00,,---,0.50,VWS V14.01,2013-07-09 01:38:00,
2013-07-08 21:43:00,70.6,70.0,30.10,SW,235,0.0,0.0,98,0.00,,---,0.50,VWS V14.01,2013-07-09 01:43:00,
2013-07-08 21:49:00,70.6,70.0,30.10,SW,235,0.0,0.0,98,0.00,,---,0.50,VWS V14.01,2013-07-09 01:49:00,
2013-07-08 21:54:00,70.5,69.9,30.10,SW,235,0.0,0.0,98,0.00,,---,0.50,VWS V14.01,2013-07-09 01:54:00,
2013-07-08 21:59:00,70.4,69.8,30.10,SW,235,0.0,0.0,98,0.00,,---,0.50,VWS V14.01,2013-07-09 01:59:00,
2013-07-08 22:04:00,70.4,69.8,30.11,SW,235,0.0,1.0,98,0.00,,---,0.50,VWS V14.01,2013-07-09 02:04:00,
2013-07-08 22:09:00,70.4,69.8,30.11,SW,235,0.0,1.0,98,0.00,,---,0.50,VWS V14.01,2013-07-09 02:09:00,
2013-07-08 22:14:00,70.4,69.8,30.11,SW,236,0.0,1.0,98,0.00,,---,0.50,VWS V14.01,2013-07-09 02:14:00,
2013-07-08 22:19:00,70.4,69.8,30.11,SW,236,0.0,1.0,98,0.00,,---,0.50,VWS V14.01,2013-07-09 02:19:00,
2013-07-08 22:24:00,70.5,69.9,30.10,SW,236,0.0,1.0,98,0.00,,---,0.50,VWS V14.01,2013-07-09 02:24:00,
2013-07-08 22:29:00,70.3,69.7,30.11,SW,236,0.0,1.0,98,0.00,,---,0.50,VWS V14.01,2013-07-09 02:29:00,
2013-07-08 22:34:00,70.3,69.7,30.10,SW,236,0.0,0.0,98,0.00,,---,0.50,VWS V14.01,2013-07-09 02:34:00,
2013-07-08 22:40:00,70.3,69.7,30.10,SE,128,0.0,1.0,98,0.00,,---,0.50,VWS V14.01,2013-07-09 02:40:00,
2013-07-08 22:45:00,70.4,70.1,30.10,WSW,238,0.0,1.0,99,0.00,,---,0.50,VWS V14.01,2013-07-09 02:45:00,
2013-07-08 22:51:00,70.4,69.8,30.10,SSE,161,0.0,1.0,98,0.00,,---,0.50,VWS V14.01,2013-07-09 02:51:00,
2013-07-08 22:56:00,70.3,69.7,30.10,SSE,161,0.0,1.0,98,0.00,,---,0.50,VWS V14.01,2013-07-09 02:56:00,
2013-07-08 23:01:00,70.2,69.6,30.10,SSE,161,0.0,0.0,98,0.00,,---,0.50,VWS V14.01,2013-07-09 03:01:00,
2013-07-08 23:06:00,70.2,69.6,30.10,South,174,0.0,0.0,98,0.00,,---,0.50,VWS V14.01,2013-07-09 03:06:00,
2013-07-08 23:11:00,70.0,69.4,30.10,South,174,0.0,0.0,98,0.00,,---,0.50,VWS V14.01,2013-07-09 03:11:00,
2013-07-08 23:16:00,69.9,69.3,30.10,South,174,0.0,0.0,98,0.00,,---,0.50,VWS V14.01,2013-07-09 03:16:00,
2013-07-08 23:22:00,69.8,69.2,30.09,South,174,0.0,0.0,98,0.00,,---,0.50,VWS V14.01,2013-07-09 03:22:00,
2013-07-08 23:27:00,69.9,69.6,30.09,West,261,0.0,1.0,99,0.00,,---,0.50,VWS V14.01,2013-07-09 03:27:00,
2013-07-08 23:32:00,69.8,69.2,30.09,West,261,0.0,0.0,98,0.00,,---,0.50,VWS V14.01,2013-07-09 03:32:00,
2013-07-08 23:37:00,69.7,69.1,30.09,West,261,0.0,0.0,98,0.00,,---,0.50,VWS V14.01,2013-07-09 03:37:00,
2013-07-08 23:42:00,69.6,69.0,30.09,West,260,0.0,0.0,98,0.00,,---,0.50,VWS V14.01,2013-07-09 03:42:00,
2013-07-08 23:48:00,69.6,69.0,30.09,West,261,0.0,0.0,98,0.00,,---,0.50,VWS V14.01,2013-07-09 03:48:00,
2013-07-08 23:53:00,69.5,68.9,30.10,West,261,0.0,0.0,98,0.01,,---,0.51,VWS V14.01,2013-07-09 03:53:00,
2013-07-08 23:58:00,69.4,69.1,30.10,West,261,0.0,0.0,99,0.01,,---,0.51,VWS V14.01,2013-07-09 03:58:00,